Overview Statistics Trail Chart Weather Telemetry Raw packets
 

This is the latest recevied weather packets stored in our database for station/object CE3TDM-10. If no packets are shown the sender has not sent any weather packets the latest 10 day(s).

<< 10 11 12 13 14 15 16 >>
Time Temp. Humidity Pressure Rain* Wind** Luminosity Snow
1788285715 29.44° C 31% 923.4 hPa - - - -
1788284815 29.44° C 31% 923.8 hPa - - - -
1788283915 29.44° C 31% 923.8 hPa - - - -
1788283236 29.44° C 31% 924.1 hPa - - - -
1788283015 29.44° C 31% 924.1 hPa - - - -
1788282114 29.44° C 31% 924.4 hPa - - - -
1788281214 29.44° C 31% 924.4 hPa - - - -
1788280314 29.44° C 31% 924.6 hPa - - - -
1788279414 29.44° C 31% 924.9 hPa - - - -
1788277614 30° C 31% 925.2 hPa - - - -
1788276714 30° C 31% 925.3 hPa - - - -
1788275814 28.89° C 31% 925.5 hPa - - - -
1788274914 28.33° C 32% 925.7 hPa - - - -
1788274014 27.78° C 32% 925.4 hPa - - - -
1788271313 28.33° C 31% 925.6 hPa - - - -
1788269513 27.78° C 30% 925.6 hPa - - - -
1788268613 27.22° C 30% 925.4 hPa - - - -
1788267843 27.22° C 30% 925.5 hPa - - - -
1788267713 27.22° C 30% 925.5 hPa - - - -
1788266813 27.22° C 30% 925.3 hPa - - - -
1788265913 27.22° C 29% 925.2 hPa - - - -
1788265013 27.22° C 29% 925.2 hPa - - - -
1788262412 28.89° C 29% 924.8 hPa - - - -
1788262313 28.89° C 29% 924.8 hPa - - - -
1788261531 29.44° C 29% 924.7 hPa - - - -

* Rain since midnight (hover to see other rain measurements)
** Current wind speed in m/s (hover to see current wind gust speed)